Time,TemperatureF,DewpointF,PressureIn,WindDirection,WindDirectionDegrees,WindSpeedMPH,WindSpeedGustMPH,Humidity,HourlyPrecipIn,Conditions,Clouds,dailyrainin,SoftwareType,DateUTC
2013-04-30 00:01:00,59.2,46.6,29.89,SSE,153,5.4,8.9,63,0.00,,,0.00,VWS V14.01,2013-04-30 04:01:00,
2013-04-30 00:03:00,59.2,46.6,29.89,ESE,110,0.0,12.3,63,0.00,,,0.00,VWS V14.01,2013-04-30 04:03:00,
2013-04-30 00:06:00,59.2,46.6,29.89,South,187,5.4,8.9,63,0.00,,,0.00,VWS V14.01,2013-04-30 04:06:00,
2013-04-30 00:08:00,59.2,46.6,29.89,SSW,201,4.7,10.1,63,0.00,,,0.00,VWS V14.01,2013-04-30 04:08:00,
2013-04-30 00:12:00,59.2,46.6,29.89,SSE,160,4.0,8.9,63,0.00,,,0.00,VWS V14.01,2013-04-30 04:12:00,
2013-04-30 00:17:00,59.4,46.8,29.89,SSE,154,4.0,8.9,63,0.00,,,0.00,VWS V14.01,2013-04-30 04:17:00,
2013-04-30 00:22:00,59.4,46.8,29.89,South,182,4.0,6.7,63,0.00,,,0.00,VWS V14.01,2013-04-30 04:22:00,
2013-04-30 00:28:00,59.2,46.6,29.89,SSE,159,5.4,10.1,63,0.00,,,0.00,VWS V14.01,2013-04-30 04:28:00,
2013-04-30 00:34:00,59.2,46.6,29.89,SSW,197,6.0,10.1,63,0.00,,,0.00,VWS V14.01,2013-04-30 04:34:00,
2013-04-30 00:39:00,59.0,46.4,29.89,South,171,3.4,8.9,63,0.00,,,0.00,VWS V14.01,2013-04-30 04:39:00,
2013-04-30 00:44:00,59.0,46.4,29.89,ESE,119,6.0,11.2,63,0.00,,,0.00,VWS V14.01,2013-04-30 04:44:00,
2013-04-30 00:49:00,59.0,46.4,29.89,SSE,156,4.7,7.8,63,0.00,,,0.00,VWS V14.01,2013-04-30 04:49:00,
2013-04-30 00:56:00,58.8,46.7,29.92,SE,126,4.7,7.8,64,0.00,,,0.00,VWS V14.01,2013-04-30 04:56:00,
2013-04-30 01:01:00,58.6,46.5,29.92,SE,132,7.4,13.4,64,0.00,,,0.00,VWS V14.01,2013-04-30 05:01:00,
2013-04-30 01:06:00,58.6,46.9,29.92,SE,130,5.4,12.3,65,0.00,,,0.00,VWS V14.01,2013-04-30 05:06:00,
2013-04-30 01:12:00,58.5,46.8,29.89,SSE,165,4.7,8.9,65,0.00,,,0.00,VWS V14.01,2013-04-30 05:12:00,
2013-04-30 01:17:00,58.5,46.8,29.89,ESE,117,6.7,11.2,65,0.00,,,0.00,VWS V14.01,2013-04-30 05:17:00,
2013-04-30 01:22:00,58.3,46.6,29.89,ESE,112,4.7,12.3,65,0.00,,,0.00,VWS V14.01,2013-04-30 05:22:00,
2013-04-30 01:28:00,57.9,46.2,29.89,South,169,5.4,8.9,65,0.00,,,0.00,VWS V14.01,2013-04-30 05:28:00,
2013-04-30 01:33:00,57.9,46.6,29.89,South,189,9.4,15.7,66,0.00,,,0.00,VWS V14.01,2013-04-30 05:33:00,
2013-04-30 01:38:00,57.9,46.6,29.89,SE,139,4.0,6.7,66,0.00,,,0.00,VWS V14.01,2013-04-30 05:38:00,
2013-04-30 01:44:00,57.7,46.9,29.89,SSE,148,6.0,10.1,67,0.00,,,0.00,VWS V14.01,2013-04-30 05:44:00,
2013-04-30 01:49:00,57.7,46.9,29.89,SSW,196,4.7,7.8,67,0.00,,,0.00,VWS V14.01,2013-04-30 05:49:00,
2013-04-30 01:56:00,57.7,46.9,29.92,SSE,148,5.4,10.1,67,0.00,,,0.00,VWS V14.01,2013-04-30 05:56:00,
2013-04-30 02:01:00,57.7,46.9,29.92,SE,135,8.7,15.7,67,0.00,,,0.00,VWS V14.01,2013-04-30 06:01:00,
2013-04-30 02:07:00,57.7,46.9,29.92,SE,135,6.0,12.3,67,0.00,,,0.00,VWS V14.01,2013-04-30 06:07:00,
2013-04-30 02:12:00,57.6,47.1,29.89,SE,137,5.4,8.9,68,0.00,,,0.00,VWS V14.01,2013-04-30 06:12:00,
2013-04-30 02:18:00,57.7,47.3,29.89,SE,142,4.0,6.7,68,0.00,,,0.00,VWS V14.01,2013-04-30 06:18:00,
2013-04-30 02:24:00,57.6,47.1,29.89,SSE,159,5.4,13.4,68,0.00,,,0.00,VWS V14.01,2013-04-30 06:24:00,
2013-04-30 02:29:00,57.4,46.9,29.89,ESE,116,6.0,13.4,68,0.00,,,0.00,VWS V14.01,2013-04-30 06:29:00,
2013-04-30 02:34:00,57.6,47.1,29.89,SE,124,4.7,13.4,68,0.00,,,0.00,VWS V14.01,2013-04-30 06:34:00,
2013-04-30 02:39:00,57.7,47.3,29.89,SE,144,6.7,13.4,68,0.00,,,0.00,VWS V14.01,2013-04-30 06:39:00,
2013-04-30 02:46:00,57.9,47.4,29.89,SE,133,5.4,8.9,68,0.00,,,0.00,VWS V14.01,2013-04-30 06:46:00,
2013-04-30 02:51:00,57.9,47.4,29.89,SE,142,5.4,8.9,68,0.00,,,0.00,VWS V14.01,2013-04-30 06:51:00,
2013-04-30 02:56:00,57.9,47.4,29.89,ESE,104,6.0,10.1,68,0.00,,,0.00,VWS V14.01,2013-04-30 06:56:00,
2013-04-30 03:02:00,57.9,47.4,29.89,SSE,168,7.4,15.7,68,0.00,,,0.00,VWS V14.01,2013-04-30 07:02:00,
2013-04-30 03:08:00,57.7,47.3,29.89,ESE,120,6.0,12.3,68,0.00,,,0.00,VWS V14.01,2013-04-30 07:08:00,
2013-04-30 03:13:00,57.6,47.1,29.89,SE,128,6.0,14.5,68,0.00,,,0.00,VWS V14.01,2013-04-30 07:13:00,
2013-04-30 03:19:00,57.6,47.1,29.89,ESE,123,7.4,14.5,68,0.00,,,0.00,VWS V14.01,2013-04-30 07:19:00,
2013-04-30 03:24:00,57.7,47.3,29.89,SE,137,4.7,20.1,68,0.00,,,0.00,VWS V14.01,2013-04-30 07:24:00,
2013-04-30 03:31:00,57.9,47.4,29.89,SSE,163,7.4,14.5,68,0.00,,,0.00,VWS V14.01,2013-04-30 07:31:00,
2013-04-30 03:36:00,57.9,47.4,29.89,SE,136,8.1,15.7,68,0.00,,,0.00,VWS V14.01,2013-04-30 07:36:00,
2013-04-30 03:41:00,57.6,47.5,29.89,SSE,159,8.7,21.8,69,0.00,,,0.00,VWS V14.01,2013-04-30 07:41:00,
2013-04-30 03:47:00,57.2,47.5,29.89,SE,132,5.4,12.3,70,0.00,,,0.00,VWS V14.01,2013-04-30 07:47:00,
2013-04-30 03:52:00,56.7,47.4,29.89,SE,127,4.0,8.9,71,0.00,,,0.00,VWS V14.01,2013-04-30 07:52:00,
2013-04-30 03:58:00,56.7,47.4,29.89,SE,125,4.7,8.9,71,0.00,,,0.00,VWS V14.01,2013-04-30 07:58:00,
2013-04-30 04:03:00,56.7,47.8,29.89,SE,143,8.7,14.5,72,0.00,,,0.00,VWS V14.01,2013-04-30 08:03:00,
2013-04-30 04:09:00,56.8,47.9,29.89,SE,142,7.4,15.7,72,0.00,,,0.00,VWS V14.01,2013-04-30 08:09:00,
2013-04-30 04:14:00,56.8,47.9,29.89,SE,132,6.0,12.3,72,0.00,,,0.00,VWS V14.01,2013-04-30 08:14:00,
2013-04-30 04:20:00,56.7,47.8,29.89,ESE,119,8.1,14.5,72,0.00,,,0.00,VWS V14.01,2013-04-30 08:20:00,
2013-04-30 04:25:00,56.7,48.1,29.89,SE,128,8.1,14.5,73,0.00,,,0.00,VWS V14.01,2013-04-30 08:25:00,
2013-04-30 04:31:00,56.7,48.1,29.89,SSE,155,6.0,14.5,73,0.00,,,0.00,VWS V14.01,2013-04-30 08:31:00,
2013-04-30 04:36:00,56.5,47.9,29.89,SSW,202,5.4,15.7,73,0.00,,,0.00,VWS V14.01,2013-04-30 08:36:00,
2013-04-30 04:41:00,56.5,47.9,29.89,SE,145,5.4,10.1,73,0.00,,,0.00,VWS V14.01,2013-04-30 08:41:00,
2013-04-30 04:47:00,56.5,47.9,29.89,SSE,162,6.0,13.4,73,0.00,,,0.00,VWS V14.01,2013-04-30 08:47:00,
2013-04-30 04:52:00,56.3,47.8,29.89,SSE,155,8.1,14.5,73,0.00,,,0.00,VWS V14.01,2013-04-30 08:52:00,
2013-04-30 04:57:00,56.3,47.8,29.89,SE,139,5.4,10.1,73,0.00,,,0.00,VWS V14.01,2013-04-30 08:57:00,
2013-04-30 05:02:00,56.3,47.8,29.89,SE,143,5.4,14.5,73,0.00,,,0.00,VWS V14.01,2013-04-30 09:02:00,
2013-04-30 05:08:00,56.3,47.4,29.89,SSW,198,8.7,14.5,72,0.00,,,0.00,VWS V14.01,2013-04-30 09:08:00,
2013-04-30 05:14:00,56.7,48.1,29.89,SE,136,4.7,12.3,73,0.00,,,0.00,VWS V14.01,2013-04-30 09:14:00,
2013-04-30 05:19:00,56.7,48.1,29.89,SSE,160,4.7,21.8,73,0.00,,,0.00,VWS V14.01,2013-04-30 09:19:00,
2013-04-30 05:25:00,56.8,47.9,29.89,SE,139,7.4,20.7,72,0.00,,,0.00,VWS V14.01,2013-04-30 09:25:00,
2013-04-30 05:31:00,56.7,47.8,29.89,SE,125,6.0,14.5,72,0.00,,,0.00,VWS V14.01,2013-04-30 09:31:00,
2013-04-30 05:36:00,56.7,47.8,29.89,South,183,7.4,20.1,72,0.00,,,0.00,VWS V14.01,2013-04-30 09:36:00,
2013-04-30 05:41:00,56.7,47.8,29.89,WSW,257,6.0,15.7,72,0.00,,,0.00,VWS V14.01,2013-04-30 09:41:00,
2013-04-30 05:47:00,56.7,47.8,29.89,South,182,6.0,21.8,72,0.00,,,0.00,VWS V14.01,2013-04-30 09:47:00,
2013-04-30 05:53:00,56.8,47.9,29.89,SSE,168,0.0,15.7,72,0.00,,,0.00,VWS V14.01,2013-04-30 09:53:00,
2013-04-30 05:58:00,56.7,47.8,29.89,SSE,168,7.4,12.3,72,0.00,,,0.00,VWS V14.01,2013-04-30 09:58:00,
2013-04-30 06:03:00,56.7,47.8,29.89,SE,136,8.1,16.8,72,0.00,,,0.00,VWS V14.01,2013-04-30 10:03:00,
2013-04-30 06:08:00,56.7,47.8,29.89,SW,217,6.0,15.7,72,0.00,,,0.00,VWS V14.01,2013-04-30 10:08:00,
2013-04-30 06:14:00,56.5,47.6,29.89,South,176,4.7,13.4,72,0.00,,,0.00,VWS V14.01,2013-04-30 10:14:00,
2013-04-30 06:19:00,56.7,47.8,29.89,SSW,200,9.4,15.7,72,0.00,,,0.00,VWS V14.01,2013-04-30 10:19:00,
2013-04-30 06:24:00,56.5,47.6,29.89,SE,140,8.1,21.8,72,0.00,,,0.00,VWS V14.01,2013-04-30 10:24:00,
2013-04-30 06:29:00,56.5,47.6,29.89,SSW,193,4.0,19.0,72,0.00,,,0.00,VWS V14.01,2013-04-30 10:29:00,
2013-04-30 06:34:00,56.5,47.6,29.89,SSE,152,5.4,19.0,72,0.00,,,0.00,VWS V14.01,2013-04-30 10:34:00,
2013-04-30 06:39:00,56.5,47.6,29.89,SSE,158,5.4,14.5,72,0.00,,,0.00,VWS V14.01,2013-04-30 10:39:00,
2013-04-30 06:45:00,56.3,47.4,29.89,South,191,4.0,15.7,72,0.00,,,0.00,VWS V14.01,2013-04-30 10:45:00,
2013-04-30 06:50:00,56.3,47.4,29.89,South,175,8.1,13.4,72,0.00,,,0.00,VWS V14.01,2013-04-30 10:50:00,
2013-04-30 06:56:00,56.5,47.6,29.89,South,179,8.1,19.0,72,0.00,,,0.00,VWS V14.01,2013-04-30 10:56:00,
2013-04-30 07:01:00,56.7,47.8,29.89,SSE,155,5.4,15.7,72,0.00,,,0.00,VWS V14.01,2013-04-30 11:01:00,
2013-04-30 07:06:00,56.7,47.8,29.89,SSE,152,8.1,13.4,72,0.00,,,0.00,VWS V14.01,2013-04-30 11:06:00,
2013-04-30 07:11:00,56.8,47.9,29.89,SE,136,4.7,14.5,72,0.00,,,0.00,VWS V14.01,2013-04-30 11:11:00,
2013-04-30 07:17:00,56.8,47.9,29.89,SE,142,8.1,27.4,72,0.00,,,0.00,VWS V14.01,2013-04-30 11:17:00,
2013-04-30 07:22:00,56.5,47.9,29.89,SSE,162,7.4,12.3,73,0.00,,,0.00,VWS V14.01,2013-04-30 11:22:00,
2013-04-30 07:28:00,56.3,48.1,29.89,SE,129,10.7,20.1,74,0.00,,,0.00,VWS V14.01,2013-04-30 11:28:00,
2013-04-30 07:33:00,56.1,48.3,29.89,SE,143,11.4,21.8,75,0.00,,,0.00,VWS V14.01,2013-04-30 11:33:00,
2013-04-30 07:39:00,55.9,48.8,29.89,SSE,158,15.1,25.2,77,0.00,,,0.00,VWS V14.01,2013-04-30 11:39:00,
2013-04-30 07:45:00,55.8,49.0,29.89,SE,127,5.4,21.8,78,0.00,,,0.00,VWS V14.01,2013-04-30 11:45:00,
2013-04-30 07:50:00,55.9,49.2,29.89,SE,142,4.7,14.5,78,0.00,,,0.00,VWS V14.01,2013-04-30 11:50:00,
2013-04-30 07:56:00,55.9,49.2,29.89,SSE,166,6.0,25.2,78,0.00,,,0.00,VWS V14.01,2013-04-30 11:56:00,
2013-04-30 08:01:00,55.9,49.2,29.89,SE,144,8.7,15.7,78,0.00,,,0.00,VWS V14.01,2013-04-30 12:01:00,
2013-04-30 08:07:00,56.1,49.4,29.89,South,172,5.4,13.4,78,0.00,,,0.00,VWS V14.01,2013-04-30 12:07:00,
2013-04-30 08:13:00,56.3,49.2,29.92,ESE,115,4.0,13.4,77,0.00,,,0.00,VWS V14.01,2013-04-30 12:13:00,
2013-04-30 08:18:00,56.3,49.2,29.92,WSW,242,4.0,7.8,77,0.04,,,0.04,VWS V14.01,2013-04-30 12:18:00,
2013-04-30 08:24:00,56.3,48.8,29.92,SSW,195,5.4,12.3,76,0.04,,,0.04,VWS V14.01,2013-04-30 12:24:00,
2013-04-30 08:30:00,56.3,48.8,29.89,South,178,6.0,13.4,76,0.04,,,0.04,VWS V14.01,2013-04-30 12:30:00,
2013-04-30 08:36:00,56.5,49.0,29.89,SSW,192,6.7,15.7,76,0.04,,,0.04,VWS V14.01,2013-04-30 12:36:00,
2013-04-30 08:42:00,56.7,49.2,29.89,SE,145,8.7,14.5,76,0.04,,,0.04,VWS V14.01,2013-04-30 12:42:00,
2013-04-30 08:47:00,56.8,49.0,29.89,South,184,4.7,13.4,75,0.04,,,0.04,VWS V14.01,2013-04-30 12:47:00,
2013-04-30 08:53:00,57.2,49.0,29.89,SSW,211,4.7,15.7,74,0.04,,,0.04,VWS V14.01,2013-04-30 12:53:00,
2013-04-30 08:58:00,57.2,49.0,29.92,SSE,151,4.7,15.7,74,0.04,,,0.04,VWS V14.01,2013-04-30 12:58:00,
2013-04-30 09:03:00,57.6,49.3,29.92,SE,126,5.4,20.7,74,0.04,,,0.04,VWS V14.01,2013-04-30 13:03:00,
2013-04-30 09:08:00,57.7,49.5,29.92,SSW,193,6.0,14.5,74,0.04,,,0.04,VWS V14.01,2013-04-30 13:08:00,
2013-04-30 09:14:00,58.1,49.9,29.92,SSE,162,4.7,14.5,74,0.04,,,0.04,VWS V14.01,2013-04-30 13:14:00,
2013-04-30 09:21:00,58.5,49.8,29.92,SSE,156,6.0,20.7,73,0.00,,,0.04,VWS V14.01,2013-04-30 13:21:00,
2013-04-30 09:26:00,58.8,49.8,29.92,ESE,110,10.7,17.9,72,0.00,,,0.04,VWS V14.01,2013-04-30 13:26:00,
2013-04-30 09:31:00,59.2,50.2,29.92,SE,146,8.7,14.5,72,0.00,,,0.04,VWS V14.01,2013-04-30 13:31:00,
2013-04-30 09:36:00,59.5,50.1,29.92,SE,127,8.7,15.7,71,0.00,,,0.04,VWS V14.01,2013-04-30 13:36:00,
2013-04-30 09:42:00,60.1,50.3,29.92,SE,131,8.1,15.7,70,0.00,,,0.04,VWS V14.01,2013-04-30 13:42:00,
2013-04-30 09:48:00,60.4,50.6,29.92,ESE,106,7.4,12.3,70,0.00,,,0.04,VWS V14.01,2013-04-30 13:48:00,
2013-04-30 09:53:00,61.0,50.8,29.92,SSW,207,5.4,19.0,69,0.00,,,0.04,VWS V14.01,2013-04-30 13:53:00,
2013-04-30 09:59:00,61.3,50.7,29.92,SSE,151,8.1,13.4,68,0.00,,,0.04,VWS V14.01,2013-04-30 13:59:00,
2013-04-30 10:04:00,61.7,51.0,29.92,SE,128,4.0,10.1,68,0.00,,,0.04,VWS V14.01,2013-04-30 14:04:00,
2013-04-30 10:09:00,62.1,51.0,29.92,South,187,6.0,10.1,67,0.00,,,0.04,VWS V14.01,2013-04-30 14:09:00,
2013-04-30 10:14:00,62.4,51.3,29.92,SSE,155,5.4,17.9,67,0.00,,,0.04,VWS V14.01,2013-04-30 14:14:00,
2013-04-30 10:20:00,62.6,51.1,29.92,South,183,5.4,20.7,66,0.00,,,0.04,VWS V14.01,2013-04-30 14:20:00,
2013-04-30 10:26:00,63.0,51.0,29.92,ESE,114,4.0,14.5,65,0.00,,,0.04,VWS V14.01,2013-04-30 14:26:00,
2013-04-30 10:32:00,63.1,51.2,29.92,SSE,154,8.7,15.7,65,0.00,,,0.04,VWS V14.01,2013-04-30 14:32:00,
2013-04-30 10:37:00,63.3,50.5,29.92,SSW,203,8.1,13.4,63,0.00,,,0.04,VWS V14.01,2013-04-30 14:37:00,
2013-04-30 10:42:00,63.3,50.1,29.92,SE,139,8.1,13.4,62,0.00,,,0.04,VWS V14.01,2013-04-30 14:42:00,
2013-04-30 10:48:00,64.0,51.2,29.92,ESE,117,6.0,13.4,63,0.00,,,0.04,VWS V14.01,2013-04-30 14:48:00,
2013-04-30 10:53:00,64.6,51.3,29.92,SSW,195,8.1,15.7,62,0.00,,,0.04,VWS V14.01,2013-04-30 14:53:00,
2013-04-30 10:58:00,64.8,50.6,29.92,SE,146,4.0,13.4,60,0.00,,,0.04,VWS V14.01,2013-04-30 14:58:00,
2013-04-30 11:03:00,65.3,51.5,29.92,South,180,7.4,20.1,61,0.00,,,0.04,VWS V14.01,2013-04-30 15:03:00,
2013-04-30 11:09:00,66.2,51.9,29.92,SSW,204,4.7,10.1,60,0.00,,,0.04,VWS V14.01,2013-04-30 15:09:00,
2013-04-30 11:16:00,67.1,51.8,29.95,SSE,152,8.1,15.7,58,0.00,,,0.04,VWS V14.01,2013-04-30 15:16:00,
2013-04-30 11:21:00,67.5,51.7,29.95,South,182,5.4,10.1,57,0.00,,,0.04,VWS V14.01,2013-04-30 15:21:00,
2013-04-30 11:27:00,68.2,52.4,29.95,SE,145,7.4,12.3,57,0.00,,,0.04,VWS V14.01,2013-04-30 15:27:00,
2013-04-30 11:33:00,69.1,52.2,29.95,ESE,118,5.4,13.4,55,0.00,,,0.04,VWS V14.01,2013-04-30 15:33:00,
2013-04-30 11:38:00,70.0,52.6,29.95,East,82,5.4,15.7,54,0.00,,,0.04,VWS V14.01,2013-04-30 15:38:00,
2013-04-30 11:44:00,70.7,52.8,29.95,ESE,111,8.7,15.7,53,0.00,,,0.04,VWS V14.01,2013-04-30 15:44:00,
2013-04-30 11:49:00,71.1,52.0,29.95,ESE,106,4.0,10.1,51,0.00,,,0.04,VWS V14.01,2013-04-30 15:49:00,
2013-04-30 11:56:00,70.5,51.0,29.95,ESE,122,8.7,16.8,50,0.00,,,0.04,VWS V14.01,2013-04-30 15:56:00,
2013-04-30 12:02:00,69.8,49.8,29.95,SSE,158,4.0,10.1,49,0.00,,,0.04,VWS V14.01,2013-04-30 16:02:00,
2013-04-30 12:08:00,69.6,49.6,29.95,ESE,113,5.4,19.0,49,0.00,,,0.04,VWS V14.01,2013-04-30 16:08:00,
2013-04-30 12:13:00,70.0,50.0,29.95,East,84,4.7,8.9,49,0.00,,,0.04,VWS V14.01,2013-04-30 16:13:00,
2013-04-30 12:19:00,70.0,50.0,29.95,South,176,8.7,21.8,49,0.00,,,0.04,VWS V14.01,2013-04-30 16:19:00,
2013-04-30 12:24:00,70.3,50.8,29.95,SE,127,5.4,17.9,50,0.00,,,0.04,VWS V14.01,2013-04-30 16:24:00,
2013-04-30 12:30:00,70.3,50.8,29.95,South,183,10.1,16.8,50,0.00,,,0.04,VWS V14.01,2013-04-30 16:30:00,
2013-04-30 12:36:00,70.3,50.3,29.95,SE,139,8.7,15.7,49,0.00,,,0.04,VWS V14.01,2013-04-30 16:36:00,
2013-04-30 12:42:00,70.7,50.6,29.95,SE,136,5.4,14.5,49,0.00,,,0.04,VWS V14.01,2013-04-30 16:42:00,
2013-04-30 12:48:00,71.4,51.8,29.95,South,180,12.4,20.7,50,0.00,,,0.04,VWS V14.01,2013-04-30 16:48:00,
2013-04-30 12:53:00,72.3,52.1,29.95,ESE,116,10.1,16.8,49,0.00,,,0.04,VWS V14.01,2013-04-30 16:53:00,
2013-04-30 12:58:00,72.7,51.9,29.92,ESE,117,6.0,14.5,48,0.00,,,0.04,VWS V14.01,2013-04-30 16:58:00,
2013-04-30 13:04:00,72.7,51.3,29.92,SE,132,12.1,20.1,47,0.00,,,0.04,VWS V14.01,2013-04-30 17:04:00,
2013-04-30 13:09:00,72.9,51.5,29.92,SSW,200,8.7,14.5,47,0.00,,,0.04,VWS V14.01,2013-04-30 17:09:00,
2013-04-30 13:16:00,73.9,52.5,29.92,South,172,9.4,15.7,47,0.00,,,0.04,VWS V14.01,2013-04-30 17:16:00,
2013-04-30 13:22:00,74.5,52.4,29.92,South,177,12.1,21.8,46,0.00,,,0.04,VWS V14.01,2013-04-30 17:22:00,
2013-04-30 13:27:00,73.9,51.3,29.92,SE,130,5.4,8.9,45,0.00,,,0.04,VWS V14.01,2013-04-30 17:27:00,
2013-04-30 13:33:00,74.1,52.0,29.92,SE,126,5.4,15.7,46,0.00,,,0.04,VWS V14.01,2013-04-30 17:33:00,
2013-04-30 13:38:00,74.3,51.6,29.92,SE,124,8.7,14.5,45,0.00,,,0.04,VWS V14.01,2013-04-30 17:38:00,
2013-04-30 13:43:00,74.7,51.3,29.92,South,191,9.4,21.8,44,0.00,,,0.04,VWS V14.01,2013-04-30 17:43:00,
2013-04-30 13:48:00,75.2,51.8,29.92,SE,127,11.4,19.0,44,0.00,,,0.04,VWS V14.01,2013-04-30 17:48:00,
2013-04-30 13:53:00,75.4,51.3,29.92,ESE,115,10.7,21.8,43,0.00,,,0.04,VWS V14.01,2013-04-30 17:53:00,
2013-04-30 13:59:00,76.5,52.3,29.92,SSW,195,8.7,20.7,43,0.00,,,0.04,VWS V14.01,2013-04-30 17:59:00,
2013-04-30 14:06:00,76.8,51.4,29.92,SSE,152,18.5,30.8,41,0.00,,,0.04,VWS V14.01,2013-04-30 18:06:00,
2013-04-30 14:11:00,77.4,52.5,29.92,SSE,152,18.5,30.8,42,0.00,,,0.04,VWS V14.01,2013-04-30 18:11:00,
2013-04-30 14:17:00,77.9,53.0,29.92,SE,140,8.1,13.4,42,0.00,,,0.04,VWS V14.01,2013-04-30 18:17:00,
2013-04-30 14:22:00,78.6,53.0,29.92,SE,140,8.1,13.4,41,0.00,,,0.04,VWS V14.01,2013-04-30 18:22:00,
2013-04-30 14:28:00,79.0,52.6,29.92,SE,140,8.1,13.4,40,0.00,,,0.04,VWS V14.01,2013-04-30 18:28:00,
2013-04-30 14:33:00,79.3,53.0,29.92,SE,140,8.1,13.4,40,0.00,,,0.04,VWS V14.01,2013-04-30 18:33:00,
2013-04-30 14:39:00,79.7,53.3,29.92,SE,140,8.1,13.4,40,0.00,,,0.04,VWS V14.01,2013-04-30 18:39:00,
2013-04-30 14:46:00,80.6,54.1,29.92,SE,140,8.1,13.4,40,0.00,,,0.04,VWS V14.01,2013-04-30 18:46:00,
2013-04-30 14:51:00,80.4,51.0,29.92,SE,140,8.1,13.4,36,0.00,,,0.04,VWS V14.01,2013-04-30 18:51:00,
2013-04-30 14:57:00,81.1,51.7,29.92,SE,140,8.1,13.4,36,0.00,,,0.04,VWS V14.01,2013-04-30 18:57:00,
2013-04-30 15:02:00,81.5,52.7,29.92,SE,140,8.1,13.4,37,0.00,,,0.04,VWS V14.01,2013-04-30 19:02:00,
2013-04-30 15:08:00,81.7,51.4,29.92,SE,140,8.1,13.4,35,0.00,,,0.04,VWS V14.01,2013-04-30 19:08:00,
2013-04-30 15:13:00,81.9,51.5,29.92,SE,140,8.1,13.4,35,0.00,,,0.04,VWS V14.01,2013-04-30 19:13:00,
2013-04-30 15:18:00,81.3,50.3,29.92,SE,140,8.1,13.4,34,0.00,,,0.04,VWS V14.01,2013-04-30 19:18:00,
2013-04-30 15:23:00,81.7,52.2,29.92,SE,140,8.1,13.4,36,0.00,,,0.04,VWS V14.01,2013-04-30 19:23:00,
2013-04-30 15:28:00,82.2,52.6,29.92,SE,140,8.1,13.4,36,0.00,,,0.04,VWS V14.01,2013-04-30 19:28:00,
2013-04-30 15:34:00,82.4,52.0,29.92,SE,140,8.1,13.4,35,0.00,,,0.04,VWS V14.01,2013-04-30 19:34:00,
2013-04-30 15:40:00,82.0,51.7,29.92,SE,140,8.1,13.4,35,0.00,,,0.04,VWS V14.01,2013-04-30 19:40:00,
2013-04-30 15:46:00,82.4,51.2,29.92,SE,140,8.1,13.4,34,0.00,,,0.04,VWS V14.01,2013-04-30 19:46:00,
2013-04-30 15:51:00,82.6,52.2,29.92,SE,140,8.1,13.4,35,0.00,,,0.04,VWS V14.01,2013-04-30 19:51:00,
2013-04-30 15:56:00,82.8,52.3,29.92,ESE,118,11.4,19.0,35,0.00,,,0.04,VWS V14.01,2013-04-30 19:56:00,
2013-04-30 16:02:00,82.8,51.6,29.92,ESE,118,11.4,19.0,34,0.00,,,0.04,VWS V14.01,2013-04-30 20:02:00,
2013-04-30 16:08:00,83.1,51.1,29.92,South,171,9.4,20.7,33,0.00,,,0.04,VWS V14.01,2013-04-30 20:08:00,
2013-04-30 16:13:00,82.6,50.6,29.89,South,169,12.4,20.7,33,0.00,,,0.04,VWS V14.01,2013-04-30 20:13:00,
2013-04-30 16:19:00,82.2,50.3,29.89,South,170,9.4,15.7,33,0.00,,,0.04,VWS V14.01,2013-04-30 20:19:00,
2013-04-30 16:24:00,82.2,50.3,29.89,South,172,5.4,8.9,33,0.00,,,0.04,VWS V14.01,2013-04-30 20:24:00,
2013-04-30 16:30:00,82.4,50.4,29.89,South,172,5.4,8.9,33,0.00,,,0.04,VWS V14.01,2013-04-30 20:30:00,
2013-04-30 16:35:00,82.6,50.6,29.89,South,172,5.4,8.9,33,0.00,,,0.04,VWS V14.01,2013-04-30 20:35:00,
2013-04-30 16:40:00,82.8,50.8,29.89,South,172,5.4,8.9,33,0.00,,,0.04,VWS V14.01,2013-04-30 20:40:00,
2013-04-30 16:46:00,82.9,50.9,29.89,ESE,110,7.4,12.3,33,0.00,,,0.04,VWS V14.01,2013-04-30 20:46:00,
2013-04-30 16:52:00,82.9,50.9,29.89,SSE,162,6.0,10.1,33,0.00,,,0.04,VWS V14.01,2013-04-30 20:52:00,
2013-04-30 16:57:00,82.0,50.1,29.89,SSW,200,8.7,14.5,33,0.00,,,0.04,VWS V14.01,2013-04-30 20:57:00,
2013-04-30 17:02:00,81.5,49.7,29.89,SSE,152,8.1,20.1,33,0.00,,,0.04,VWS V14.01,2013-04-30 21:02:00,
2013-04-30 17:08:00,81.7,50.6,29.89,SE,144,8.1,20.1,34,0.00,,,0.04,VWS V14.01,2013-04-30 21:08:00,
2013-04-30 17:14:00,81.7,49.8,29.89,South,173,6.0,19.0,33,0.00,,,0.04,VWS V14.01,2013-04-30 21:14:00,
2013-04-30 17:19:00,81.9,50.0,29.89,SSW,200,8.7,14.5,33,0.00,,,0.04,VWS V14.01,2013-04-30 21:19:00,
2013-04-30 17:24:00,81.7,49.8,29.89,West,268,8.7,26.3,33,0.00,,,0.04,VWS V14.01,2013-04-30 21:24:00,
2013-04-30 17:29:00,81.5,49.7,100.00,South,190,12.1,20.1,33,0.00,,,0.04,VWS V14.01,2013-04-30 21:29:00,
2013-04-30 17:34:00,81.3,50.3,29.89,SSW,192,5.4,15.7,34,0.00,,,0.04,VWS V14.01,2013-04-30 21:34:00,
2013-04-30 17:40:00,81.7,50.6,29.89,SW,233,6.0,16.8,34,0.00,,,0.04,VWS V14.01,2013-04-30 21:40:00,
2013-04-30 17:45:00,81.7,51.4,29.92,SSW,192,6.0,10.1,35,0.00,,,0.04,VWS V14.01,2013-04-30 21:45:00,
2013-04-30 17:50:00,81.5,50.5,29.92,South,191,8.7,25.2,34,0.00,,,0.04,VWS V14.01,2013-04-30 21:50:00,
2013-04-30 17:55:00,81.9,50.8,29.92,SSE,147,6.0,17.9,34,0.00,,,0.04,VWS V14.01,2013-04-30 21:55:00,
2013-04-30 18:00:00,82.2,51.1,29.92,SSW,204,5.4,15.7,34,0.00,,,0.04,VWS V14.01,2013-04-30 22:00:00,
2013-04-30 18:06:00,82.0,50.1,29.92,South,179,8.1,16.8,33,0.00,,,0.04,VWS V14.01,2013-04-30 22:06:00,
2013-04-30 18:11:00,81.5,49.7,29.92,SSW,207,12.4,20.7,33,0.00,,,0.04,VWS V14.01,2013-04-30 22:11:00,
2013-04-30 18:16:00,81.1,49.3,29.92,SSE,167,9.4,21.8,33,0.00,,,0.04,VWS V14.01,2013-04-30 22:16:00,
2013-04-30 18:22:00,80.4,48.7,29.92,SE,144,4.7,20.1,33,0.00,,,0.04,VWS V14.01,2013-04-30 22:22:00,
2013-04-30 18:27:00,80.4,49.5,29.92,SW,235,9.4,15.7,34,0.00,,,0.04,VWS V14.01,2013-04-30 22:27:00,
2013-04-30 18:32:00,80.1,50.0,29.92,SW,230,8.1,13.4,35,0.00,,,0.04,VWS V14.01,2013-04-30 22:32:00,
2013-04-30 18:38:00,79.9,49.8,29.92,SSE,155,9.4,21.8,35,0.00,,,0.04,VWS V14.01,2013-04-30 22:38:00,
2013-04-30 18:43:00,79.5,49.5,29.92,SSW,200,8.1,15.7,35,0.00,,,0.04,VWS V14.01,2013-04-30 22:43:00,
2013-04-30 18:49:00,78.8,48.9,29.92,SSE,167,8.1,20.7,35,0.00,,,0.04,VWS V14.01,2013-04-30 22:49:00,
2013-04-30 18:54:00,78.3,49.1,29.92,SE,137,8.7,20.1,36,0.00,,,0.04,VWS V14.01,2013-04-30 22:54:00,
2013-04-30 18:59:00,77.9,49.6,29.92,SSE,149,8.7,15.7,37,0.00,,,0.04,VWS V14.01,2013-04-30 22:59:00,
2013-04-30 19:05:00,77.4,49.1,29.92,SE,124,5.4,13.4,37,0.00,,,0.04,VWS V14.01,2013-04-30 23:05:00,
2013-04-30 19:10:00,77.0,49.5,29.92,SW,214,4.0,10.1,38,0.00,,,0.04,VWS V14.01,2013-04-30 23:10:00,
2013-04-30 19:16:00,76.6,50.5,29.92,ESE,123,5.4,20.1,40,0.00,,,0.04,VWS V14.01,2013-04-30 23:16:00,
2013-04-30 19:21:00,76.3,50.2,29.92,SSW,200,8.7,14.5,40,0.00,,,0.04,VWS V14.01,2013-04-30 23:21:00,
2013-04-30 19:26:00,76.1,50.0,29.92,ESE,104,8.7,21.8,40,0.00,,,0.04,VWS V14.01,2013-04-30 23:26:00,
2013-04-30 19:32:00,75.7,50.4,29.92,ESE,118,9.4,15.7,41,0.00,,,0.04,VWS V14.01,2013-04-30 23:32:00,
2013-04-30 19:37:00,75.4,50.1,29.92,ESE,120,8.1,14.5,41,0.00,,,0.04,VWS V14.01,2013-04-30 23:37:00,
2013-04-30 19:43:00,75.2,49.9,29.92,SE,135,8.1,19.0,41,0.00,,,0.04,VWS V14.01,2013-04-30 23:43:00,
2013-04-30 19:49:00,75.0,50.4,29.92,SE,129,8.1,13.4,42,0.00,,,0.04,VWS V14.01,2013-04-30 23:49:00,
2013-04-30 19:54:00,74.7,50.1,29.92,South,179,8.7,14.5,42,0.00,,,0.04,VWS V14.01,2013-04-30 23:54:00,
2013-04-30 20:00:00,74.5,49.9,29.95,SSE,162,8.1,24.0,42,0.00,,,0.04,VWS V14.01,2013-05-01 00:00:00,
2013-04-30 20:05:00,74.1,50.2,29.95,SSW,203,5.4,13.4,43,0.00,,,0.04,VWS V14.01,2013-05-01 00:05:00,
2013-04-30 20:10:00,73.9,50.1,29.95,SE,127,8.1,19.0,43,0.00,,,0.04,VWS V14.01,2013-05-01 00:10:00,
2013-04-30 20:16:00,73.6,49.7,29.95,SSW,193,7.4,15.7,43,0.00,,,0.04,VWS V14.01,2013-05-01 00:16:00,
2013-04-30 20:22:00,73.2,50.0,29.95,South,172,5.4,15.7,44,0.00,,,0.04,VWS V14.01,2013-05-01 00:22:00,
2013-04-30 20:27:00,73.0,49.9,29.95,SSW,197,5.4,10.1,44,0.00,,,0.04,VWS V14.01,2013-05-01 00:27:00,
2013-04-30 20:32:00,72.5,50.0,29.95,South,182,4.0,13.4,45,0.00,,,0.04,VWS V14.01,2013-05-01 00:32:00,
2013-04-30 20:38:00,72.3,49.8,29.95,SE,142,9.4,15.7,45,0.00,,,0.04,VWS V14.01,2013-05-01 00:38:00,
2013-04-30 20:44:00,71.8,49.9,29.95,South,187,4.7,8.9,46,0.00,,,0.04,VWS V14.01,2013-05-01 00:44:00,
2013-04-30 20:50:00,71.6,50.3,29.95,SSW,193,4.7,19.0,47,0.00,,,0.04,VWS V14.01,2013-05-01 00:50:00,
2013-04-30 20:56:00,71.4,50.2,29.95,SE,126,8.1,13.4,47,0.00,,,0.04,VWS V14.01,2013-05-01 00:56:00,
2013-04-30 21:02:00,71.2,50.6,29.95,SE,126,4.0,6.7,48,0.00,,,0.04,VWS V14.01,2013-05-01 01:02:00,
2013-04-30 21:07:00,70.9,50.2,29.95,SE,135,3.4,7.8,48,0.00,,,0.04,VWS V14.01,2013-05-01 01:07:00,
2013-04-30 21:13:00,70.7,50.6,29.95,SE,146,4.7,12.3,49,0.00,,,0.04,VWS V14.01,2013-05-01 01:13:00,
2013-04-30 21:18:00,70.3,50.3,29.95,SE,140,4.7,14.5,49,0.00,,,0.04,VWS V14.01,2013-05-01 01:18:00,
2013-04-30 21:23:00,70.3,50.8,29.95,SE,134,6.0,10.1,50,0.00,,,0.04,VWS V14.01,2013-05-01 01:23:00,
2013-04-30 21:29:00,70.2,50.7,29.98,South,174,6.0,12.3,50,0.00,,,0.04,VWS V14.01,2013-05-01 01:29:00,
2013-04-30 21:35:00,70.0,51.0,29.98,SE,140,4.0,14.5,51,0.00,,,0.04,VWS V14.01,2013-05-01 01:35:00,
2013-04-30 21:40:00,70.0,51.0,29.98,SE,134,5.4,8.9,51,0.00,,,0.04,VWS V14.01,2013-05-01 01:40:00,
2013-04-30 21:45:00,69.8,51.4,29.98,SSE,155,7.4,12.3,52,0.00,,,0.04,VWS V14.01,2013-05-01 01:45:00,
2013-04-30 21:51:00,69.6,51.8,29.98,SSE,157,5.4,12.3,53,0.00,,,0.04,VWS V14.01,2013-05-01 01:51:00,
2013-04-30 21:56:00,69.4,51.6,29.98,South,180,0.0,10.1,53,0.00,,,0.04,VWS V14.01,2013-05-01 01:56:00,
2013-04-30 22:02:00,69.3,51.4,29.98,South,185,5.4,13.4,53,0.00,,,0.04,VWS V14.01,2013-05-01 02:02:00,
2013-04-30 22:07:00,69.1,51.2,29.98,SE,146,6.7,11.2,53,0.00,,,0.04,VWS V14.01,2013-05-01 02:07:00,
2013-04-30 22:12:00,68.7,51.4,29.98,ESE,115,4.7,7.8,54,0.00,,,0.04,VWS V14.01,2013-05-01 02:12:00,
2013-04-30 22:18:00,68.7,51.4,29.98,ESE,116,6.0,10.1,54,0.00,,,0.04,VWS V14.01,2013-05-01 02:18:00,
2013-04-30 22:23:00,68.7,51.9,29.98,East,89,7.4,12.3,55,0.00,,,0.04,VWS V14.01,2013-05-01 02:23:00,
2013-04-30 22:28:00,68.5,51.8,29.98,SE,144,5.4,10.1,55,0.00,,,0.04,VWS V14.01,2013-05-01 02:28:00,
2013-04-30 22:33:00,68.2,51.4,29.98,SSE,149,4.0,10.1,55,0.00,,,0.04,VWS V14.01,2013-05-01 02:33:00,
2013-04-30 22:38:00,68.0,51.7,29.98,South,176,7.4,14.5,56,0.00,,,0.04,VWS V14.01,2013-05-01 02:38:00,
2013-04-30 22:44:00,68.0,51.7,29.98,SE,131,7.4,12.3,56,0.00,,,0.04,VWS V14.01,2013-05-01 02:44:00,
2013-04-30 22:49:00,67.8,52.0,29.98,SE,146,5.4,8.9,57,0.00,,,0.04,VWS V14.01,2013-05-01 02:49:00,
2013-04-30 22:55:00,67.6,51.9,30.01,SE,130,4.0,8.9,57,0.00,,,0.04,VWS V14.01,2013-05-01 02:55:00,
2013-04-30 23:01:00,67.5,51.7,30.01,ESE,116,4.7,7.8,57,0.00,,,0.04,VWS V14.01,2013-05-01 03:01:00,
2013-04-30 23:06:00,67.1,51.8,30.01,SSE,158,0.0,8.9,58,0.00,,,0.04,VWS V14.01,2013-05-01 03:06:00,
2013-04-30 23:11:00,66.9,51.7,29.98,South,188,4.0,7.8,58,0.00,,,0.04,VWS V14.01,2013-05-01 03:11:00,
2013-04-30 23:16:00,66.9,52.1,29.98,ESE,113,4.7,8.9,59,0.00,,,0.04,VWS V14.01,2013-05-01 03:16:00,
2013-04-30 23:22:00,66.9,52.6,29.98,ESE,104,5.4,13.4,60,0.00,,,0.04,VWS V14.01,2013-05-01 03:22:00,
2013-04-30 23:28:00,66.7,52.4,30.01,SE,129,4.7,7.8,60,0.00,,,0.04,VWS V14.01,2013-05-01 03:28:00,
2013-04-30 23:34:00,66.7,52.4,30.01,SE,138,4.7,7.8,60,0.00,,,0.04,VWS V14.01,2013-05-01 03:34:00,
2013-04-30 23:39:00,66.6,52.7,30.01,South,175,0.0,5.6,61,0.00,,,0.04,VWS V14.01,2013-05-01 03:39:00,
2013-04-30 23:44:00,66.6,52.7,30.01,ESE,122,4.7,7.8,61,0.00,,,0.04,VWS V14.01,2013-05-01 03:44:00,
2013-04-30 23:50:00,66.4,53.0,30.01,SE,142,4.0,10.1,62,0.00,,,0.04,VWS V14.01,2013-05-01 03:50:00,
2013-04-30 23:55:00,66.2,52.8,30.01,SE,145,5.4,8.9,62,0.00,,,0.04,VWS V14.01,2013-05-01 03:55:00,